Location: Cluj-Napoca
(46.7712°N, 23.6236°E)
Time: 18:17:17
(UTC+03:00)

ISS - Pass Details

Date: 30 May 2020
Orbit: 417 x 420 km, 51.6° (Epoch: 26 May)

Event Time Altitude Azimuth Distance (km) Brightness Sun altitude
Rises 22:36:02 0° 294° (WNW) 2,367 1.3 -11.6°
Reaches altitude 10° 22:38:11 10° 288° (WNW) 1,501 0.0 -11.9°
Maximum altitude 22:41:25 46° 214° (SW) 575 -3.2 -12.2°
Enters shadow 22:43:15 22° 151° (SSE) 972 -2.5 -12.4°
